TIANYAN 01

Last updated on Sun Aug 09 2026 00:03:15 GMT+0000 (Coordinated Universal Time)

1 44881U 19093C 26220.61451216 .00000585 00000+0 71907-4 0 9990 2 44881 97.7496 291.5612 0012034 275.6877 84.2967 14.86591471359208
UTC large
Height (km)
Speed (km/s)
/
Latitude / Longitude
Inclination (degrees)
Orbital Period (minutes)
Azimuth
Elevation
Range (km)
Doppler Factor

Next 0 passes for location: London (51.5072 / 0.1276)

No passes found over London.
TIANYAN 01